N611NK KMSY-KMZJ

Flight info

Callsign N611NK
Flight time N/A
Altitude 28000
Route AEX WWELL PYLET INK EWM J4 SSO HOTTT SECBO
Aircraft A320/M-SBDE1FGHILORXY/B1

Departure

Time 2026-05-07 22:28
Airport Louis Armstrong New Orleans International Airport (KMSY)

Arrival

Time N/A
Airport Pinal Airpark (KMZJ)
Time Latitude Longitude Altitude Speed Heading
2026-05-07 22:18 29.99730 -90.26291 11 ft 0 kts 105°
2026-05-07 22:21 29.99727 -90.26281 10 ft 4 kts 113°
2026-05-07 22:21 29.99711 -90.26266 10 ft 6 kts 160°
2026-05-07 22:22 29.99677 -90.26301 9 ft 9 kts 234°
2026-05-07 22:22 29.99628 -90.26347 10 ft 11 kts 197°
2026-05-07 22:22 29.99543 -90.26375 9 ft 15 kts 196°
2026-05-07 22:22 29.99452 -90.26347 8 ft 16 kts 119°
2026-05-07 22:23 29.99421 -90.26229 8 ft 11 kts 105°
2026-05-07 22:23 29.99401 -90.26145 7 ft 13 kts 105°
2026-05-07 22:23 29.99371 -90.26022 4 ft 16 kts 105°
2026-05-07 22:23 29.99344 -90.25905 3 ft 12 kts 105°
2026-05-07 22:24 29.99292 -90.25861 4 ft 11 kts 165°
2026-05-07 22:24 29.99232 -90.25805 6 ft 13 kts 108°
2026-05-07 22:24 29.99208 -90.25691 4 ft 16 kts 102°
2026-05-07 22:24 29.99203 -90.25566 6 ft 15 kts 81°
2026-05-07 22:25 29.99201 -90.25446 8 ft 16 kts 94°
2026-05-07 22:25 29.99195 -90.25318 7 ft 15 kts 93°
2026-05-07 22:25 29.99188 -90.25188 7 ft 15 kts 94°
2026-05-07 22:25 29.99183 -90.25082 9 ft 6 kts 98°
2026-05-07 22:26 29.99142 -90.25064 9 ft 9 kts 192°
2026-05-07 22:26 29.99063 -90.25089 7 ft 14 kts 195°
2026-05-07 22:26 29.98980 -90.25116 5 ft 11 kts 195°
2026-05-07 22:26 29.98937 -90.25165 6 ft 8 kts 274°
2026-05-07 22:27 29.98945 -90.25200 8 ft 1 kts 285°
2026-05-07 22:27 29.98952 -90.25229 7 ft 11 kts 285°
2026-05-07 22:27 29.99041 -90.25598 8 ft 88 kts 285°
2026-05-07 22:27 29.99269 -90.26535 13 ft 150 kts 286°
2026-05-07 22:28 29.99452 -90.27316 385 ft 152 kts 285°
2026-05-07 22:28 29.99692 -90.28513 1096 ft 154 kts 284°
2026-05-07 22:28 29.99939 -90.29780 1598 ft 173 kts 286°
2026-05-07 22:28 29.99995 -90.30066 1676 ft 178 kts 286°
2026-05-07 22:29 30.00144 -90.30749 1855 ft 189 kts 289°
2026-05-07 22:29 30.00695 -90.32240 2200 ft 217 kts 305°
2026-05-07 22:29 30.01674 -90.33689 2751 ft 241 kts 312°
2026-05-07 22:29 30.02843 -90.35197 3520 ft 258 kts 313°
2026-05-07 22:30 30.04083 -90.36734 4592 ft 263 kts 313°
2026-05-07 22:30 30.05365 -90.38248 5675 ft 266 kts 313°
2026-05-07 22:30 30.06673 -90.39782 6713 ft 269 kts 312°
2026-05-07 22:30 30.07994 -90.41327 7701 ft 273 kts 312°
2026-05-07 22:31 30.09358 -90.42876 8676 ft 276 kts 313°
2026-05-07 22:31 30.10755 -90.44428 9637 ft 280 kts 313°
2026-05-07 22:31 30.12163 -90.45981 10330 ft 293 kts 313°
2026-05-07 22:31 30.13702 -90.47670 10667 ft 316 kts 313°
2026-05-07 22:32 30.15310 -90.49463 11300 ft 325 kts 312°
2026-05-07 22:32 30.16919 -90.51318 12076 ft 329 kts 311°
2026-05-07 22:32 30.18557 -90.53201 12891 ft 333 kts 311°
2026-05-07 22:32 30.20225 -90.55097 13712 ft 337 kts 311°
2026-05-07 22:33 30.21917 -90.56995 14375 ft 344 kts 311°
2026-05-07 22:33 30.23651 -90.58962 14943 ft 352 kts 310°
2026-05-07 22:33 30.25402 -90.60941 15629 ft 355 kts 310°
2026-05-07 22:33 30.27192 -90.62934 16342 ft 359 kts 310°
2026-05-07 22:34 30.29012 -90.64927 17072 ft 361 kts 310°
2026-05-07 22:34 30.30875 -90.66935 17591 ft 371 kts 310°
2026-05-07 22:34 30.32797 -90.69024 17952 ft 384 kts 309°
2026-05-07 22:34 30.34710 -90.71207 18513 ft 389 kts 308°
2026-05-07 22:35 30.36660 -90.73419 19119 ft 393 kts 309°
2026-05-07 22:35 30.38638 -90.75607 19731 ft 396 kts 309°
2026-05-07 22:35 30.40638 -90.77815 20349 ft 398 kts 309°
2026-05-07 22:35 30.42372 -90.80210 20922 ft 389 kts 295°
2026-05-07 22:36 30.43702 -90.82975 21476 ft 385 kts 292°
2026-05-07 22:36 30.44958 -90.85680 21829 ft 378 kts 292°
2026-05-07 22:36 30.46188 -90.88339 22143 ft 382 kts 292°
2026-05-07 22:36 30.47473 -90.91124 22565 ft 389 kts 292°
2026-05-07 22:37 30.48735 -90.93854 23048 ft 392 kts 292°
2026-05-07 22:37 30.50029 -90.96653 23546 ft 394 kts 292°
2026-05-07 22:37 30.51328 -90.99459 23964 ft 397 kts 292°
2026-05-07 22:37 30.52633 -91.02280 24387 ft 399 kts 292°
2026-05-07 22:38 30.53949 -91.05125 24795 ft 400 kts 292°
2026-05-07 22:38 30.55271 -91.07983 25196 ft 402 kts 292°
2026-05-07 22:38 30.56593 -91.10840 25603 ft 404 kts 292°
2026-05-07 22:38 30.57924 -91.13717 26012 ft 406 kts 292°
2026-05-07 22:39 30.59240 -91.16617 26423 ft 405 kts 289°
2026-05-07 22:39 30.60072 -91.19704 26814 ft 400 kts 278°
2026-05-07 22:39 30.60631 -91.22880 27217 ft 402 kts 278°
2026-05-07 22:39 30.61181 -91.26055 27558 ft 402 kts 278°
2026-05-07 22:40 30.61724 -91.29207 27753 ft 394 kts 278°
2026-05-07 22:40 30.62253 -91.32278 27948 ft 382 kts 277°
2026-05-07 22:40 30.62765 -91.35271 28028 ft 380 kts 277°
2026-05-07 22:41 30.63788 -91.41326 28032 ft 389 kts 277°
2026-05-07 22:41 30.64849 -91.47539 28030 ft 391 kts 277°
2026-05-07 22:42 30.65912 -91.53708 28032 ft 389 kts 277°
2026-05-07 22:42 30.66966 -91.59868 28033 ft 388 kts 277°
2026-05-07 22:43 30.68008 -91.66020 28033 ft 388 kts 277°
2026-05-07 22:43 30.69044 -91.72187 28036 ft 388 kts 277°
2026-05-07 22:44 30.70078 -91.78316 28037 ft 389 kts 277°
2026-05-07 22:44 30.71115 -91.84480 28042 ft 389 kts 277°
2026-05-07 22:45 30.72147 -91.90648 28040 ft 388 kts 277°
2026-05-07 22:45 30.73176 -91.96817 28039 ft 388 kts 277°
2026-05-07 22:46 30.74206 -92.02987 28036 ft 388 kts 277°
2026-05-07 22:46 30.75233 -92.09148 28033 ft 388 kts 277°
2026-05-07 22:47 30.76258 -92.15313 28033 ft 388 kts 277°
2026-05-07 22:47 30.77272 -92.21441 28036 ft 388 kts 277°
2026-05-07 22:48 30.78284 -92.27604 28038 ft 388 kts 277°
2026-05-07 22:48 30.79288 -92.33786 28042 ft 389 kts 277°
2026-05-07 22:49 30.80294 -92.39970 28046 ft 389 kts 277°
2026-05-07 22:49 30.81309 -92.46161 28047 ft 390 kts 277°
2026-05-07 22:50 30.82148 -92.51305 28050 ft 390 kts 277°
2026-05-07 22:50 30.83153 -92.57497 28045 ft 389 kts 277°
2026-05-07 22:51 30.84157 -92.63709 28044 ft 389 kts 277°
2026-05-07 22:51 30.85150 -92.69895 28045 ft 389 kts 277°
2026-05-07 22:52 30.86142 -92.76088 28045 ft 389 kts 277°
2026-05-07 22:52 30.87127 -92.82237 28047 ft 389 kts 277°
2026-05-07 22:53 30.88113 -92.88449 28046 ft 389 kts 277°
2026-05-07 22:53 30.89098 -92.94641 28049 ft 389 kts 277°
2026-05-07 22:54 30.90077 -93.00837 28039 ft 389 kts 277°
2026-05-07 22:54 30.91058 -93.07035 28029 ft 390 kts 277°
2026-05-07 22:55 30.92041 -93.13243 28026 ft 390 kts 277°
2026-05-07 22:55 30.93010 -93.19423 28034 ft 390 kts 277°
2026-05-07 22:56 30.93986 -93.25614 28059 ft 387 kts 277°
2026-05-07 22:56 30.94946 -93.31758 28062 ft 385 kts 276°
2026-05-07 22:57 30.95894 -93.37887 28060 ft 383 kts 276°
2026-05-07 22:57 30.96833 -93.43983 28057 ft 383 kts 276°
2026-05-07 22:58 30.97774 -93.50082 28052 ft 382 kts 276°
2026-05-07 22:58 30.98718 -93.56175 28047 ft 382 kts 276°
2026-05-07 22:59 30.99653 -93.62271 28046 ft 381 kts 276°
2026-05-07 22:59 31.00582 -93.68356 28040 ft 381 kts 276°
2026-05-07 23:00 31.01503 -93.74440 28039 ft 381 kts 276°
2026-05-07 23:00 31.02425 -93.80518 28039 ft 381 kts 276°
2026-05-07 23:01 31.03343 -93.86552 28033 ft 380 kts 276°
2026-05-07 23:01 31.04250 -93.92544 28030 ft 380 kts 276°
2026-05-07 23:02 31.05159 -93.98605 28028 ft 380 kts 276°
2026-05-07 23:02 31.06073 -94.04682 28034 ft 380 kts 276°
2026-05-07 23:03 31.06985 -94.10766 28029 ft 380 kts 276°
2026-05-07 23:03 31.07892 -94.16835 28023 ft 380 kts 276°
2026-05-07 23:04 31.08788 -94.22881 28022 ft 380 kts 276°
2026-05-07 23:04 31.09691 -94.28998 28022 ft 381 kts 276°
2026-05-07 23:05 31.10581 -94.35047 28022 ft 381 kts 276°
2026-05-07 23:05 31.11478 -94.41139 28029 ft 381 kts 276°
2026-05-07 23:06 31.12370 -94.47234 28033 ft 381 kts 276°
2026-05-07 23:06 31.13264 -94.53338 28042 ft 381 kts 276°
2026-05-07 23:07 31.14150 -94.59432 28047 ft 381 kts 276°
2026-05-07 23:07 31.15033 -94.65537 28055 ft 381 kts 276°
2026-05-07 23:08 31.15902 -94.71649 28056 ft 381 kts 275°
2026-05-07 23:08 31.16653 -94.77776 28056 ft 381 kts 274°
2026-05-07 23:09 31.17347 -94.83911 28054 ft 381 kts 274°
2026-05-07 23:09 31.18042 -94.90018 28053 ft 382 kts 274°
2026-05-07 23:10 31.18756 -94.96154 28049 ft 382 kts 274°
2026-05-07 23:10 31.19473 -95.02348 28050 ft 383 kts 274°
2026-05-07 23:11 31.20183 -95.08508 28050 ft 383 kts 274°
2026-05-07 23:11 31.20885 -95.14635 28047 ft 383 kts 274°
2026-05-07 23:12 31.21592 -95.20811 28050 ft 384 kts 274°
2026-05-07 23:12 31.22297 -95.26999 28048 ft 384 kts 274°
2026-05-07 23:13 31.22997 -95.33180 28047 ft 384 kts 274°
2026-05-07 23:13 31.23698 -95.39384 28048 ft 385 kts 274°
2026-05-07 23:14 31.24391 -95.45586 28045 ft 385 kts 274°
2026-05-07 23:14 31.25078 -95.51790 28048 ft 385 kts 273°
2026-05-07 23:15 31.25768 -95.58007 28047 ft 385 kts 273°
2026-05-07 23:15 31.26461 -95.64215 28049 ft 386 kts 273°
2026-05-07 23:16 31.27152 -95.70433 28050 ft 386 kts 273°
2026-05-07 23:16 31.27832 -95.76652 28056 ft 386 kts 273°
2026-05-07 23:17 31.28509 -95.82867 28057 ft 385 kts 273°
2026-05-07 23:17 31.29184 -95.89082 28062 ft 385 kts 273°
2026-05-07 23:18 31.29860 -95.95297 28065 ft 385 kts 273°
2026-05-07 23:18 31.30525 -96.01503 28062 ft 384 kts 273°
2026-05-07 23:19 31.31193 -96.07700 28057 ft 384 kts 273°
2026-05-07 23:19 31.31857 -96.13894 28057 ft 384 kts 272°
2026-05-07 23:20 31.32513 -96.20047 28055 ft 384 kts 272°
2026-05-07 23:20 31.33168 -96.26244 28061 ft 384 kts 272°
2026-05-07 23:21 31.33822 -96.32442 28059 ft 384 kts 272°
2026-05-07 23:21 31.34469 -96.38642 28069 ft 384 kts 272°
2026-05-07 23:22 31.35117 -96.44845 28074 ft 384 kts 272°
2026-05-07 23:22 31.35762 -96.51059 28078 ft 384 kts 272°
2026-05-07 23:23 31.36400 -96.57263 28080 ft 384 kts 272°
2026-05-07 23:23 31.37042 -96.63480 28081 ft 384 kts 272°
2026-05-07 23:24 31.37673 -96.69689 28073 ft 384 kts 272°
2026-05-07 23:24 31.38310 -96.75906 28069 ft 385 kts 272°
2026-05-07 23:25 31.38942 -96.82086 28070 ft 385 kts 272°
2026-05-07 23:25 31.39568 -96.88363 28067 ft 386 kts 272°
2026-05-07 23:26 31.40187 -96.94561 28072 ft 386 kts 272°
2026-05-07 23:26 31.40810 -97.00810 28076 ft 386 kts 272°
2026-05-07 23:27 31.41743 -97.10201 28070 ft 387 kts 272°
2026-05-07 23:27 31.42362 -97.16463 28073 ft 387 kts 272°
2026-05-07 23:28 31.42976 -97.22700 28078 ft 388 kts 272°
2026-05-07 23:28 31.43588 -97.28976 28077 ft 388 kts 272°
2026-05-07 23:29 31.44195 -97.35257 28081 ft 388 kts 272°
2026-05-07 23:29 31.44801 -97.41535 28082 ft 389 kts 272°
2026-05-07 23:30 31.45408 -97.47836 28085 ft 389 kts 272°
2026-05-07 23:30 31.46012 -97.54128 28083 ft 389 kts 272°
2026-05-07 23:31 31.46614 -97.60433 28080 ft 389 kts 272°
2026-05-07 23:31 31.47205 -97.66727 28081 ft 389 kts 272°
2026-05-07 23:32 31.47796 -97.73025 28083 ft 389 kts 272°
2026-05-07 23:32 31.48381 -97.79281 28084 ft 389 kts 272°
2026-05-07 23:33 31.48967 -97.85574 28085 ft 388 kts 272°
2026-05-07 23:33 31.49550 -97.91861 28081 ft 388 kts 272°
2026-05-07 23:34 31.50131 -97.98140 28075 ft 387 kts 272°
2026-05-07 23:34 31.50706 -98.04416 28085 ft 387 kts 271°
2026-05-07 23:35 31.51271 -98.10686 28086 ft 387 kts 271°
2026-05-07 23:35 31.51836 -98.16958 28085 ft 387 kts 271°
2026-05-07 23:36 31.52404 -98.23228 28082 ft 387 kts 271°
2026-05-07 23:36 31.52966 -98.29498 28079 ft 387 kts 271°
2026-05-07 23:37 31.53518 -98.35732 28070 ft 387 kts 271°